KAITUO 1B
1 40912U 15049P   17365.24014977  .00001552  00000-0  78762-4 0  9998
2 40912  97.4513   9.9962 0013951 232.1242 138.3896 15.18338902126183
TIANWANG 1C (TW-1C)
1 40926U 15051B   17365.49295237  .00008115  00000-0  16537-3 0  9996
2 40926  97.2071  43.7263 0011030 161.0121 306.8486 15.46431244127370
TIANWANG 1B (TW-1B)
1 40927U 15051C   17365.38735799  .00008344  00000-0  17692-3 0  9994
2 40927  97.2155  43.5430 0010562 173.1963 313.6485 15.45263427127285
TIANWANG 1A (TW-1A)
1 40928U 15051D   17365.17073880  .00003573  00000-0  98517-4 0  9993
2 40928  97.2062  37.3978 0011316 200.4577 231.1776 15.37701729126957
LAPAN A2
1 40931U 15052B   17365.20906036  .00000594  00000-0 -62310-5 0  9994
2 40931   5.9998 267.9521 0012567 151.1472 208.9096 14.76559434122134
LQSAT
1 40958U 15057A   17365.38161306  .00000040  00000-0  14015-4 0  9993
2 40958  97.9595  77.0590 0018761 150.5884 209.6386 14.73009765120148
CHUBUSAT 2
1 41338U 16012B   17364.94932562 +.00000367 +00000-0 +21955-4 0  9992
2 41338 031.0040 302.4722 0013999 207.6061 152.3831 14.99897725102559
CHUBUSAT 3
1 41339U 16012C   17365.25057834  .00000400  00000-0  24447-4 0  9995
2 41339  31.0101 299.3970 0013839 217.6515 142.3155 15.00091476102588
OUFTI-1
1 41458U 16025C   17365.09221254  .00002104  00000-0  11442-3 0  9995
2 41458  98.1592  53.8082 0171062 351.4497   8.3851 15.04107060 92161
E-STAR-2
1 41459U 16025D   17365.13802078  .00001874  00000-0  10285-3 0  9997
2 41459  98.1632  53.7612 0171813 351.9839   7.8653 15.03886067 92168
AAUSAT 4
1 41460U 16025E   17365.19823193  .00002632  00000-0  14158-3 0  9992
2 41460  98.1559  54.0926 0163569 348.9986  10.7678 15.05112725 92219
NUSAT 1
1 41557U 16033B   17365.20354570  .00001447  00000-0  55813-4 0  9995
2 41557  97.4498  84.6663 0014826  37.2800 322.9465 15.27875297 88504
BEESAT 4
1 41619U 16040W   17365.40434898  .00001616  00000-0  74515-4 0  9994
2 41619  97.4388  65.7163 0013413  97.9856 262.2903 15.21621263 72570
PRATHAM
1 41783U 16059A   17365.42596052  .00000082  00000-0  25403-4 0  9997
2 41783  98.1425  64.4895 0032351 261.8219  97.9313 14.62891262 67436
ALSAT 1N
1 41789U 16059G   17365.45564714  .00000099  00000-0  27952-4 0  9995
2 41789  98.1429  65.4056 0026860 255.0018 104.8212 14.64115430 67474
NAYIF 1
1 42017U 17008BX  17364.89651757 +.00001754 +00000-0 +75629-4 0  9999
2 42017 097.4716 065.8077 0005070 245.3711 114.6998 15.23899137048433
LILACSAT-1
1 42725U 98067ME  17365.17224290  .00017731  00000-0  20215-3 0  9991
2 42725  51.6372 130.1992 0005001 319.9167  40.1457 15.62311451 34190
MAX VALIER SAT
1 42778U 17036P   17364.71019873 +.00001108 +00000-0 +53148-4 0  9997
2 42778 097.4278 062.0356 0011328 303.4414 056.5738 15.20946156028893
